THORAD DELTA 1 DEB, 9697

Orbit data source: Space-Track

THORAD DELTA 1 DEB, 9697 is space debris in SSO originally from a launch on Fri, 15 Nov 1974 UTC launched from the Air Force Western Test Range (AFWTR). Debris objects in space refer to the collection of defunct objects orbiting the Earth. Examples of debris include non-operational satellites, rocket bodies, and fragments generated from explosions, collisions, or faulty payload assembly.

Loading next visibility...
Identifier
9697, 1974-089DW
Orbit
SSO
Country
Flag of USUS
Related business
Manufacturer
Unknown
Mission
Spacecraft
Bus & Motor
Unknown
Mass
Unknown
Launch date (UTC)
1974-11-15 (51 years ago)
Launch vehicle
Unknown
Launch site
Air Force Western Test Range (AFWTR)
Object type
Payload
Rocket body
Debris
Shape & HBR
Unknown shape, 0.1 m
Radar Cross Section
Small (<0.1 m²)

Expand to show TLE details & history
Last TLE update: 3 days ago

TLE from 3 days ago
0 THORAD DELTA 1 DEB
1 09697U 74089DW  25286.23570955  .00000205  00000-0  15067-2 0  9996
2 09697 101.8013  35.0478 0146303 207.1853 188.5189 12.53726859328334
Epoch: 2025-10-13T05:39Z
TLE epoch observation values (Epoch: 2025-10-13T05:39:25.305Z)
Latitude
34.6663°
Longitude
-80.11638°
Altitude
1,566.568 km
Speed
7.036 km/s
True Right ascension
01h 47m 07s
True Declination
34° 31' 19"
Sunlit
Object was in full shadow at epoch
Visualization orbit readout
Latitude
Unknown
Longitude
Unknown
Altitude
Unknown
Speed
Unknown
Apparent Right ascension
Unknown
Apparent Declination
Unknown
Sunlit
N/A
Visualization observer readout
Local Sidereal Time
13:00:24
Azimuth
Unknown
Elevation
Unknown
Doppler factor
Unknown
Orbital elements
Apogee altitude
1,560.966 km
Perigee altitude
1,332.013 km
Semi-major axis
7,824.626 km
Eccentricity
0.01463
Inclination
101.8013°
RAAN
35.0478°
Arg. of periapsis
207.1853°
True anomaly
188.27496°
Mean anomaly
188.5189°
Eccentric anomaly
188.3965°
Mean motion
3.1358 °/min
Orbital period
114.8 mins
BSTAR
0.0015067
Loading maneuver chart data...
Computing Atmospheric mass density...

Documentation

Showing up to 5 results
|